Regional Weather Roundup
Issued by NWS

Home | Current Version | Previous Version | Graphics & Text | Print | Product List | Glossary On
Versions: 1 2 3 4 5 6 7 8 9 10 11 12 13 14 15 16 17 18 19 20 21 22 23 24 25 26 27 28 29 30 31 32 33 34 35 36 37 38 39 40 41 42 43 44 45 46 47 48 49 50
351
ASUS43 KLMK 221302
RWRKY
KENTUCKY REGIONAL WEATHER ROUNDUP
NATIONAL WEATHER SERVICE LOUISVILLE KY
900 AM EDT FRI MAY 22 2015

NOTE "FAIR" INDICATES FEW OR NO CLOUDS BELOW 12,000 FEET
WITH NO SIGNIFICANT WEATHER AND/OR OBSTRUCTIONS TO VISIBILITY.

KYZ001>023-026-027-061>063-070>075-221400-
WESTERN AND SOUTH CENTRAL KENTUCKY

CITY           SKY/WX    TMP DP  RH WIND       PRES   REMARKS
PADUCAH        SUNNY     55  48  77 W3        30.29R
HENDERSON      SUNNY     55  45  67 SW7       30.27R
OWENSBORO      SUNNY     55  48  77 S7        30.28R
HOPKINSVILLE   SUNNY     54  48  82 W2        30.30R
BOWLING GREEN  SUNNY     54  47  77 CALM      30.30R
GLASGOW        NOT AVBL
$$

KYZ024-025-028>034-038-045-046-053-221400-
NORTH CENTRAL KENTUCKY

CITY           SKY/WX    TMP DP  RH WIND       PRES   REMARKS
LOUISVILLE/SDF SUNNY     56  45  66 SW6       30.26R
LOUISVILLE/LOU SUNNY     54  46  74 VRB6      30.26R
FORT KNOX      SUNNY     54  47  77 SW7       30.25S
$$

KYZ035>037-039>044-047>052-055>060-089>105-221400-
NORTHEAST KENTUCKY

CITY           SKY/WX    TMP DP  RH WIND       PRES   REMARKS
LEXINGTON      SUNNY     52  46  80 SW8       30.27R
COVINGTON      SUNNY     55  45  68 W7        30.21R
FRANKFORT      SUNNY     52  45  77 SW8       30.25R
$$

KYZ054-064>069-076>088-106>120-221400-
SOUTHEAST KENTUCKY

CITY           SKY/WX    TMP DP  RH WIND       PRES   REMARKS
JACKSON        FOG       48  46  93 CALM      30.28R VSB 1/4
LONDON         PTSUNNY   47  44  90 CALM      30.29R FOG
SOMERSET       NOT AVBL
MIDDLESBORO    CLOUDY    48  46  92 CALM      30.31R
MONTICELLO     FOG       48  48 100 CALM      30.33R VSB 3/4
$$




USA.gov is the U.S. government's official web portal to all federal, state and local government web resources and services.